This is the latest recevied weather packets stored in our database for station/object KE2HEH. If no packets are shown the sender has not sent any weather packets the latest 10 day(s).
| Time | Temp. | Humidity | Pressure | Rain* | Wind** | Luminosity | Snow |
|---|---|---|---|---|---|---|---|
| 1777680309 | 11.11° C | 83% | 1012.4 hPa | 0 mm | - | 0 W/m² | - |
| 1777680005 | 11.11° C | 83% | 1012.3 hPa | 0 mm | - | 0 W/m² | - |
| 1777679701 | 11.11° C | 83% | 1012.4 hPa | 0 mm | - | 0 W/m² | - |
| 1777679396 | 11.11° C | 83% | 1012.1 hPa | 0 mm | - | 2 W/m² | - |
| 1777679093 | 11.11° C | 84% | 1012.2 hPa | 0 mm | - | 3 W/m² | - |
| 1777678792 | 11.11° C | 83% | 1012.3 hPa | 0 mm | - | 6 W/m² | - |
| 1777678489 | 11.11° C | 83% | 1012.2 hPa | 0 mm | - | 8 W/m² | - |
| 1777678184 | 11.11° C | 83% | 1012.4 hPa | 0 mm | - | 11 W/m² | - |
| 1777677882 | 11.11° C | 82% | 1012.3 hPa | 0 mm | - | 14 W/m² | - |
| 1777677579 | 11.11° C | 82% | 1012.3 hPa | 0 mm | - | 17 W/m² | - |
| 1777677277 | 11.11° C | 81% | 1012.3 hPa | 0 mm | - | 22 W/m² | - |
| 1777676975 | 11.67° C | 81% | 1012.1 hPa | 0 mm | - | 30 W/m² | - |
| 1777676674 | 11.67° C | 81% | 1012.1 hPa | 0 mm | - | 34 W/m² | - |
| 1777676371 | 11.67° C | 80% | 1012.1 hPa | 0 mm | - | 38 W/m² | - |
| 1777676068 | 11.67° C | 80% | 1011.9 hPa | 0 mm | - | 42 W/m² | - |
| 1777675764 | 11.67° C | 80% | 1012 hPa | 0 mm | - | 46 W/m² | - |
| 1777675462 | 11.67° C | 80% | 1012.2 hPa | 0 mm | - | 49 W/m² | - |
| 1777675158 | 11.67° C | 80% | 1012 hPa | 0 mm | - | 53 W/m² | - |
| 1777674855 | 11.67° C | 79% | 1011.9 hPa | 0 mm | - | 57 W/m² | - |
| 1777674551 | 11.67° C | 79% | 1012.2 hPa | 0 mm | - | 59 W/m² | - |
| 1777674249 | 11.67° C | 79% | 1012.4 hPa | 0 mm | - | 64 W/m² | - |
| 1777673944 | 11.67° C | 79% | 1012.2 hPa | 0 mm | - | 67 W/m² | - |
| 1777673641 | 11.67° C | 78% | 1012.1 hPa | 0 mm | - | 72 W/m² | - |
| 1777673339 | 11.67° C | 78% | 1012.4 hPa | 0 mm | - | 81 W/m² | - |
| 1777673036 | 11.67° C | 78% | 1012.2 hPa | 0 mm | - | 109 W/m² | - |
* Rain latest hour (hover to see other rain measurements)
** Current wind speed in m/s (hover to see current wind gust speed)